User: anonymous   Login
Location: Springfield
(37.2150°N, 93.2980°W)
Time: 01:18:11
(UTC-06:00)
Language:

Iridium 62 - Orbit

View from above orbital plane
View from above orbital plane
View from above satellite
View from above satellite

Ground track
Ground track

The orbit data is extracted from the following two-line orbital elements,

1 25285U 98021A   14352.26940544  .00000466  00000-0  15932-3 0   553
2 25285 086.3971 245.0590 0002140 101.2643 258.8793 14.34219930874318
Epoch (UTC): 18 December 2014 06:27:56
Eccentricity: 0.0002140
inclination: 86.3971°
perigee height: 776 km
apogee height: 779 km
right ascension of ascending node: 245.0590°
argument of perigee: 101.2643°
revolutions per day: 14.34219930
mean anomaly at epoch: 258.8793°
orbit number at epoch: 87431

The dashed part of the orbit path shows where the satellite is in the earth's shadow,  

DLR